Temperature
17 18 18 18 18 18 17 17 17 17 17 17 17 17 17 17 17 17 17 17 17 17 17 17 17 17 17 17 18 18 18 18 18 18 18 18 18 18 18 18 18 18 18
17 17 17 17 17 17 17 17 17 17 17 17 17 17 17 17 17 17 17 17 17 17 17 17 17 17 17 17 18 18 18 18 18 18 18 18 18 18 18 18 18 18 18
17 17 17 17 17 17 17 17 17 17 17 16 16 16 16 16 16 16 17 16 16 16 17 17 17 17 17 17 17 17 17 18 18 17 17 17 18 18 18 18 18 18 18
17 17 17 17 17 17 17 17 17 17 16 16 16 16 16 16 16 16 16 16 16 16 17 17 17 17 17 17 17 17 17 17 17 17 17 17 17 18 18 18 18 18 18
17 17 17 17 17 17 17 17 16 16 16 16 16 16 16 16 16 16 16 16 16 16 16 17 17 17 17 17 17 17 17 17 17 17 17 17 17 18 18 18 18 18 18
17 17 17 17 17 17 17 16 16 16 16 16 16 16 16 16 16 16 16 16 16 16 16 17 17 17 17 17 17 17 17 17 17 17 17 17 17 17 18 18 18 18 18
17 17 17 17 17 17 17 17 16 16 16 16 16 16 16 16 16 16 16 16 16 16 16 16 17 17 17 17 17 17 17 17 17 17 17 17 17 17 18 18 18 18 18
17 17 17 17 17 17 17 17 16 16 16 16 16 16 16 16 16 16 16 16 16 16 16 16 16 17 17 17 17 17 17 17 17 17 17 17 17 17 17 17 17 18 18
17 17 17 17 17 17 17 17 17 16 16 16 16 16 16 16 16 16 16 16 16 16 16 16 16 16 17 17 17 17 17 17 17 17 17 17 17 17 17 17 17 17 17
17 17 17 17 17 17 17 17 17 16 16 16 16 16 16 16 16 16 16 16 16 16 16 16 16 16 17 17 17 17 17 17 17 17 17 17 17 17 17 17 17 17 17
18 18 17 17 17 17 17 17 17 16 16 16 16 16 16 16 16 16 16 16 16 16 16 16 16 16 17 17 17 17 17 17 17 17 17 17 17 17 17 17 17 17 17
18 18 18 18 17 17 17 17 17 16 16 16 16 16 16 16 16 16 16 16 16 16 16 17 17 17 17 17 17 17 16 16 16 16 16 16 17 17 17 17 17 17 17
18 18 18 18 18 17 17 17 17 17 17 16 17 17 16 16 16 16 16 16 16 16 16 17 17 17 17 17 17 16 16 16 16 16 16 16 16 16 17 17 17 17 17
18 18 18 18 18 17 17 17 17 17 17 17 17 17 16 16 16 16 16 16 16 16 16 17 17 17 17 17 16 16 16 16 16 16 16 16 16 16 16 16 17 16 17
18 18 18 18 18 17 17 17 17 17 17 17 17 17 16 16 16 16 16 16 16 16 16 17 16 16 16 16 16 16 16 16 16 16 16 16 16 16 16 16 16 16 16
18 18 18 18 18 18 17 17 17 17 17 17 17 17 16 16 16 16 16 16 16 16 16 16 16 16 16 16 16 16 16 16 16 16 16 16 16 16 16 16 16 16 16
18 18 18 18 18 18 17 17 17 17 17 16 17 17 17 16 16 16 16 16 16 16 16 16 16 16 16 16 16 16 16 16 15 15 15 15 15 15 16 16 16 16 16
18 18 18 18 18 17 17 17 17 17 16 16 16 16 16 16 16 16 16 16 16 16 16 16 16 16 16 16 16 16 16 15 15 15 15 15 15 15 15 15 15 15 16
19 18 18 18 17 17 17 17 17 16 16 16 16 16 16 16 16 16 16 16 16 16 16 16 16 16 16 16 15 15 15 15 15 15 15 15 15 15 15 15 15 15 15
19 18 18 18 17 17 17 17 16 16 16 16 16 16 16 16 16 16 16 16 16 16 16 16 16 16 16 16 16 15 15 15 15 15 15 15 15 15 15 15 15 15 15
19 18 18 18 17 17 17 16 16 16 16 16 16 16 16 16 16 16 16 16 16 16 16 15 16 15 16 16 16 15 15 15 15 15 15 15 15 15 14 14 14 15 15
18 18 18 18 17 17 17 16 16 16 16 16 16 16 16 16 16 16 16 16 16 16 15 15 15 15 15 16 16 15 15 15 15 15 15 15 14 15 14 14 14 14 15
18 18 18 18 17 17 17 16 16 16 16 16 16 16 16 16 16 16 16 16 16 16 15 15 15 15 15 15 15 16 15 15 15 15 15 14 14 14 14 14 14 14 14
19 18 18 18 17 17 17 16 16 16 16 16 16 16 16 16 16 16 16 15 15 15 15 15 15 15 15 15 15 15 15 15 15 15 14 14 14 14 14 14 14 14 14
19 18 18 18 18 17 17 17 16 16 16 16 16 16 16 16 16 16 16 15 15 15 15 15 15 15 15 15 15 15 15 16 15 15 14 14 14 14 14 14 14 14 14
18 18 18 18 17 17 17 17 16 16 16 16 16 16 16 15 15 15 15 15 15 15 15 15 15 15 15 15 15 15 15 15 15 15 15 14 14 14 14 14 14 14 14
Wind_Speed
8 10 12 13 13 13 13 13 14 13 13 13 13 13 12 12 12 12 12 11 11 11 11 10 10 10 10 10 9 9 9 8 8 7 7 8 8 8 8 7 6 8 9
10 12 13 14 13 13 13 13 14 14 13 13 13 13 12 12 12 11 11 11 10 10 10 10 10 10 9 9 9 8 7 7 5 5 5 6 7 8 8 9 9 8 8
12 13 13 13 13 14 14 14 14 14 13 13 13 12 12 12 11 11 11 10 10 10 10 9 9 9 9 9 8 7 6 6 5 4 2 4 8 9 9 9 8 9 8
13 14 14 14 14 14 14 14 14 13 13 13 12 12 12 11 11 11 10 10 10 10 10 9 9 9 9 8 8 7 6 6 6 6 4 7 9 10 9 8 8 8 8
14 15 14 14 14 14 14 13 13 13 12 12 12 11 11 11 11 10 10 10 9 9 9 9 9 9 8 8 7 6 6 7 7 5 7 11 11 10 9 8 7 7 7
14 15 15 15 14 14 14 13 13 12 12 11 11 11 10 10 9 9 9 9 9 9 9 9 8 8 8 7 6 6 7 7 7 4 8 10 10 9 9 8 7 7 6
13 15 15 15 14 14 13 13 12 12 11 11 11 10 10 9 9 9 9 9 8 8 8 8 8 7 7 6 6 6 7 7 3 6 9 10 9 9 8 8 7 7 6
13 14 15 15 15 14 13 13 12 11 10 10 9 8 8 8 8 8 9 9 8 8 8 8 7 7 7 6 5 6 8 8 7 8 9 9 9 9 8 8 7 7 7
11 11 12 14 14 14 13 12 10 9 8 7 6 5 5 5 6 7 8 8 8 8 7 7 6 6 5 4 4 5 7 8 7 7 9 9 9 9 8 8 8 7 7
8 8 9 12 13 13 12 10 8 7 6 4 3 2 3 3 4 5 8 7 6 6 5 5 5 4 3 1 2 4 5 7 8 10 9 9 10 9 8 8 8 8 8
7 6 7 8 9 10 11 9 8 6 5 4 5 4 4 4 5 6 8 5 4 3 2 2 3 3 2 2 1 2 4 5 10 10 10 10 10 10 9 9 9 9 8
7 6 6 7 6 7 7 7 6 4 4 2 2 2 1 5 5 6 6 4 3 2 2 3 4 4 5 3 2 1 4 7 9 10 11 12 12 11 10 10 10 9 9
6 5 5 6 6 6 4 5 4 3 3 4 5 6 6 5 3 5 4 4 3 2 1 2 4 3 2 2 4 5 7 8 10 11 12 13 12 11 11 10 10 10 10
6 5 5 5 5 6 5 3 3 3 3 4 5 7 6 3 2 2 2 2 2 2 2 2 2 5 5 6 8 7 8 8 10 11 12 14 14 12 12 11 11 11 11
6 5 5 5 6 6 4 1 4 4 4 5 5 6 6 3 2 2 3 4 4 4 3 4 5 5 6 8 9 8 7 9 11 12 11 15 15 14 14 13 12 12 12
6 6 4 6 5 5 3 3 3 4 4 5 4 5 7 5 3 2 3 2 3 4 3 3 4 4 5 5 6 7 7 8 9 11 11 12 15 15 15 14 14 13 13
7 6 5 5 4 5 5 5 4 4 6 5 6 7 7 6 5 4 2 2 3 4 5 5 5 5 4 4 5 6 6 7 8 9 10 10 11 14 15 15 15 15 14
7 7 5 5 6 7 5 4 4 6 6 5 8 9 9 9 9 6 3 2 4 5 3 3 3 4 4 4 4 4 4 5 6 8 9 9 9 10 12 14 15 15 15
7 8 6 5 6 6 5 4 5 5 5 6 7 8 9 10 10 6 3 3 6 4 3 3 4 3 3 3 3 4 4 4 5 7 7 9 10 10 10 12 14 15 15
6 8 7 5 6 5 3 4 3 4 4 6 6 7 9 9 10 7 4 6 7 4 4 3 4 4 3 2 4 4 3 4 4 4 5 8 9 10 10 10 10 12 15
5 7 7 6 5 5 3 3 3 3 3 3 4 7 7 8 8 6 4 5 4 4 4 4 3 2 2 2 3 3 3 4 5 4 4 4 6 8 10 10 10 10 11
5 5 7 6 6 5 2 2 2 2 3 3 3 5 6 7 7 5 4 3 3 3 5 5 4 3 2 2 2 2 2 2 3 4 3 4 4 7 7 10 11 11 11
6 6 6 7 7 6 4 2 3 2 2 2 2 2 4 7 7 7 5 4 3 3 3 3 3 3 2 2 2 2 2 2 1 2 3 4 4 4 4 8 11 12 12
6 6 6 6 7 6 5 2 2 2 2 2 2 2 3 5 5 6 5 5 4 3 4 3 3 2 3 2 2 2 2 2 2 1 2 3 4 5 5 6 8 11 12
7 5 5 6 6 6 5 3 1 2 2 2 2 3 3 3 4 5 5 4 3 3 4 4 5 5 3 3 2 2 2 2 2 2 2 1 2 3 4 5 6 8 10
6 5 5 6 5 4 4 4 2 2 3 3 2 2 2 2 2 3 4 4 4 3 3 3 3 4 4 4 4 3 2 2 1 1 2 2 2 2 3 3 4 5 7
Wind_Direction
91 88 86 89 89 87 85 82 81 82 81 79 77 76 75 73 71 70 68 65 64 64 62 61 61 61 63 62 59 59 60 60 63 72 78 81 78 72 64 56 63 72 70
105 95 90 89 88 88 87 86 83 81 79 78 78 76 74 74 73 71 67 64 63 63 63 63 62 61 61 60 58 56 55 50 49 57 81 87 87 80 69 61 64 66 66
103 100 91 89 89 89 88 87 85 82 79 78 77 75 73 71 71 71 69 64 62 62 62 61 62 61 60 57 54 52 42 29 15 21 48 92 98 81 74 67 65 66 61
98 96 92 90 89 89 87 85 83 82 81 79 77 76 74 73 72 67 65 63 62 61 61 61 61 62 60 57 52 43 23 5 359 5 41 72 85 80 73 68 66 66 63
96 96 96 95 92 90 87 85 82 81 80 78 76 75 73 70 68 65 62 61 61 61 61 62 62 61 59 56 49 33 7 354 358 20 61 74 78 77 72 68 67 65 61
100 100 102 100 97 92 89 86 82 81 79 78 76 74 72 69 66 63 61 58 57 59 62 62 61 61 60 56 43 24 3 358 353 38 73 79 79 75 73 69 67 64 59
106 106 106 104 101 96 91 86 83 80 78 77 74 73 71 69 68 65 61 57 57 59 62 64 63 62 59 55 40 20 3 349 359 63 74 74 76 75 72 68 70 66 59
110 112 115 113 107 101 95 88 85 82 80 78 76 76 77 77 76 71 63 58 59 62 65 68 67 67 63 55 37 16 5 7 43 63 79 75 76 72 70 70 68 66 64
115 121 126 125 116 108 101 96 91 88 87 88 88 91 93 94 91 83 73 64 63 64 69 74 75 75 70 51 25 7 2 12 30 49 68 69 70 70 71 71 70 68 65
117 124 128 127 126 123 118 113 112 109 111 118 133 156 151 145 125 101 88 77 72 74 77 84 93 95 94 63 357 350 354 13 50 59 57 67 68 68 72 74 72 70 66
110 114 118 117 121 125 128 129 145 146 155 172 196 217 218 182 154 120 97 104 101 98 99 113 129 145 172 218 276 343 0 59 70 63 56 63 67 70 73 75 74 71 68
115 113 117 118 119 111 102 125 146 130 144 161 128 125 107 83 93 106 128 143 150 168 216 217 208 216 223 226 198 26 37 71 74 71 61 64 66 69 72 72 70 70 68
118 117 116 120 116 114 107 108 95 93 89 56 45 64 54 66 92 119 156 173 190 192 256 232 219 225 173 93 87 84 63 66 71 70 63 64 65 67 69 71 70 70 68
111 108 104 109 113 102 88 100 111 83 75 56 24 56 51 33 34 56 73 62 85 74 25 16 62 57 52 65 69 67 70 74 80 81 69 66 65 66 70 72 71 71 67
115 106 95 92 87 85 76 55 80 62 51 67 20 52 62 45 27 26 62 48 45 46 36 34 46 53 48 49 56 55 60 78 79 85 78 70 66 65 68 70 70 69 66
117 96 81 80 91 112 117 80 65 79 70 54 19 51 60 55 42 25 61 54 50 53 48 55 67 63 58 58 57 51 53 67 83 94 93 80 71 67 65 66 67 64 62
118 110 94 84 79 73 68 65 71 62 66 50 24 34 53 55 51 38 39 39 32 45 54 55 57 60 71 71 65 56 51 53 67 84 93 95 86 72 67 65 65 63 60
123 114 102 95 82 71 63 50 56 55 53 52 36 23 35 43 55 41 30 24 38 39 52 65 61 60 61 59 61 58 59 49 57 71 82 85 86 84 74 70 67 63 61
126 124 117 98 91 82 83 69 49 58 51 54 44 24 29 33 46 51 26 22 39 35 28 54 62 74 74 71 80 73 66 56 45 58 62 71 78 83 83 78 69 63 61
127 122 113 98 99 98 80 81 60 44 49 55 49 40 33 35 38 35 41 37 34 32 28 49 61 67 77 73 79 82 79 80 61 45 46 56 67 74 78 78 74 65 60
134 124 122 127 111 97 74 76 78 65 58 52 52 41 38 38 36 39 45 45 41 38 30 43 52 67 71 90 88 74 54 65 83 66 53 54 57 61 71 72 73 71 64
145 133 136 130 122 115 106 113 110 97 85 78 54 40 38 40 32 37 54 64 60 49 35 39 42 38 23 49 83 114 100 40 40 72 68 58 56 56 61 68 69 70 70
157 150 142 136 131 128 121 88 88 75 81 95 85 51 44 49 32 24 42 61 55 63 60 47 43 55 24 3 48 76 105 121 100 37 75 70 65 58 57 66 65 65 65
156 152 148 144 137 130 124 112 123 124 107 101 114 113 83 64 52 26 36 49 55 55 56 36 46 46 41 10 3 28 69 106 121 112 40 59 68 65 57 59 59 64 65
151 152 143 128 118 119 126 125 106 90 96 93 94 95 88 60 59 44 41 46 54 59 58 52 47 36 38 29 21 22 24 32 49 117 123 105 68 68 74 67 64 64 66
143 137 120 115 107 109 124 136 141 104 96 96 90 98 108 93 63 57 54 54 58 57 55 54 59 53 39 25 27 39 44 48 36 78 114 125 119 104 91 80 73 74 75
Height
1526 1526 1526 1526 1527 1527 1528 1528 1529 1530 1530 1531 1531 1531 1532 1532 1532 1532 1533 1533 1533 1533 1533 1534 1534 1534 1535 1535 1535 1536 1536 1537 1537 1537 1538 1538 1539 1539 1539 1539 1540 1540 1540
1527 1527 1527 1528 1528 1529 1529 1530 1530 1531 1531 1532 1532 1533 1533 1533 1533 1534 1534 1534 1534 1534 1534 1535 1535 1535 1536 1536 1536 1537 1537 1538 1538 1539 1539 1539 1540 1540 1540 1540 1540 1540 1541
1528 1528 1528 1529 1530 1530 1531 1531 1532 1532 1533 1533 1533 1534 1534 1534 1535 1535 1535 1535 1535 1535 1535 1535 1536 1536 1536 1537 1537 1538 1538 1539 1539 1540 1540 1540 1540 1541 1541 1541 1541 1541 1541
1529 1529 1530 1530 1531 1532 1532 1533 1533 1534 1534 1535 1535 1535 1535 1536 1536 1536 1536 1536 1536 1536 1536 1537 1537 1537 1537 1538 1538 1539 1539 1540 1540 1541 1541 1541 1541 1541 1541 1541 1541 1542 1542
1530 1531 1531 1532 1533 1533 1534 1534 1535 1535 1536 1536 1536 1537 1537 1537 1537 1537 1537 1537 1537 1537 1538 1538 1538 1538 1538 1539 1539 1540 1540 1541 1541 1541 1542 1542 1542 1542 1542 1542 1542 1542 1543
1532 1532 1533 1534 1534 1535 1535 1536 1536 1537 1537 1537 1538 1538 1538 1538 1538 1538 1538 1539 1539 1539 1539 1539 1539 1539 1539 1540 1540 1541 1541 1542 1542 1542 1543 1542 1542 1542 1542 1542 1542 1543 1543
1533 1534 1535 1535 1536 1537 1537 1537 1538 1538 1539 1539 1539 1539 1540 1540 1540 1540 1540 1540 1540 1540 1540 1540 1540 1540 1540 1540 1541 1542 1542 1543 1543 1543 1543 1543 1543 1543 1543 1543 1543 1543 1543
1535 1536 1536 1537 1538 1539 1539 1539 1540 1540 1540 1540 1541 1541 1541 1541 1541 1541 1541 1541 1541 1541 1541 1541 1541 1541 1541 1541 1542 1542 1543 1543 1544 1544 1544 1543 1543 1543 1543 1543 1543 1543 1543
1537 1538 1539 1539 1540 1541 1541 1541 1542 1542 1542 1542 1542 1543 1543 1543 1543 1542 1542 1542 1542 1542 1542 1542 1542 1542 1542 1543 1543 1544 1544 1544 1544 1544 1544 1544 1544 1543 1543 1543 1543 1544 1544
1540 1541 1541 1542 1542 1543 1543 1544 1544 1544 1544 1544 1544 1544 1544 1544 1544 1544 1544 1544 1544 1543 1543 1543 1543 1544 1544 1544 1545 1545 1545 1545 1545 1545 1545 1544 1544 1544 1544 1544 1544 1544 1544
1542 1543 1544 1544 1545 1545 1546 1546 1546 1546 1546 1546 1546 1546 1546 1546 1546 1546 1546 1546 1545 1545 1545 1545 1545 1545 1546 1546 1546 1546 1546 1546 1546 1546 1546 1546 1545 1545 1545 1545 1545 1545 1545
1544 1545 1546 1547 1547 1547 1548 1548 1548 1548 1548 1548 1548 1548 1548 1548 1548 1548 1548 1547 1547 1547 1547 1547 1547 1547 1547 1548 1548 1548 1548 1547 1547 1547 1547 1547 1546 1546 1546 1546 1546 1546 1545
1545 1546 1547 1548 1549 1549 1549 1550 1550 1550 1550 1550 1550 1549 1549 1549 1549 1549 1549 1549 1548 1548 1548 1548 1549 1549 1549 1550 1549 1549 1548 1548 1548 1548 1548 1548 1547 1547 1547 1547 1547 1547 1547
1546 1548 1549 1549 1550 1550 1551 1551 1551 1551 1551 1551 1551 1550 1550 1550 1550 1550 1550 1550 1550 1550 1550 1550 1550 1551 1551 1551 1551 1550 1550 1550 1549 1549 1549 1549 1548 1548 1548 1548 1548 1548 1548
1548 1549 1550 1551 1551 1551 1552 1552 1552 1552 1552 1552 1552 1552 1551 1551 1551 1551 1551 1551 1551 1551 1551 1552 1552 1552 1552 1552 1552 1552 1552 1551 1551 1551 1550 1550 1550 1549 1549 1549 1549 1549 1549
1549 1550 1551 1552 1552 1552 1553 1553 1553 1554 1553 1553 1553 1553 1552 1552 1552 1552 1552 1552 1552 1552 1553 1553 1553 1553 1553 1553 1553 1553 1553 1553 1553 1552 1552 1552 1552 1551 1551 1551 1551 1550 1550
1549 1551 1552 1553 1553 1554 1554 1554 1555 1555 1554 1554 1553 1553 1553 1553 1553 1552 1553 1553 1553 1553 1554 1554 1554 1554 1555 1555 1555 1555 1555 1555 1555 1555 1554 1554 1554 1553 1553 1552 1552 1552 1551
1550 1551 1553 1554 1554 1554 1555 1555 1556 1555 1555 1555 1554 1554 1554 1554 1553 1553 1553 1553 1554 1554 1554 1555 1555 1555 1556 1556 1556 1556 1556 1557 1557 1557 1556 1556 1555 1555 1555 1554 1554 1553 1552
1551 1552 1554 1555 1555 1555 1556 1556 1556 1556 1556 1556 1555 1555 1554 1554 1554 1554 1554 1554 1554 1554 1555 1555 1556 1556 1557 1557 1557 1558 1558 1558 1558 1559 1558 1558 1557 1557 1556 1556 1555 1554 1554
1552 1553 1554 1555 1556 1556 1557 1557 1557 1557 1557 1557 1556 1556 1555 1555 1555 1555 1555 1555 1555 1555 1555 1556 1556 1557 1558 1558 1559 1559 1559 1560 1560 1560 1560 1560 1559 1559 1558 1557 1556 1556 1555
1552 1553 1554 1556 1557 1557 1558 1558 1558 1558 1558 1558 1557 1557 1556 1556 1556 1556 1556 1555 1555 1555 1556 1556 1557 1558 1559 1559 1560 1560 1561 1561 1561 1561 1561 1561 1561 1560 1560 1559 1558 1557 1556
1552 1554 1555 1556 1557 1557 1558 1559 1559 1559 1559 1558 1558 1558 1557 1557 1557 1557 1557 1556 1556 1556 1556 1557 1557 1558 1559 1560 1560 1561 1562 1564 1563 1563 1563 1562 1562 1562 1561 1560 1560 1559 1558
1552 1554 1555 1556 1557 1558 1558 1559 1559 1559 1559 1560 1559 1559 1559 1558 1558 1558 1557 1557 1557 1557 1557 1557 1558 1558 1559 1560 1561 1561 1562 1563 1563 1565 1564 1563 1563 1562 1562 1562 1561 1560 1559
1551 1553 1555 1556 1557 1558 1558 1559 1560 1560 1560 1561 1560 1560 1560 1559 1559 1559 1558 1558 1558 1558 1558 1558 1558 1559 1559 1560 1561 1561 1562 1563 1563 1564 1565 1564 1564 1564 1563 1563 1562 1561 1560
1550 1552 1554 1556 1557 1558 1558 1559 1560 1560 1561 1561 1561 1561 1561 1560 1560 1560 1559 1559 1559 1558 1558 1559 1559 1559 1559 1560 1561 1561 1562 1563 1563 1564 1565 1565 1565 1565 1564 1564 1563 1562 1561
1549 1551 1553 1555 1556 1557 1558 1559 1560 1561 1561 1562 1562 1562 1562 1561 1561 1560 1560 1560 1559 1559 1559 1559 1559 1560 1560 1560 1561 1561 1562 1563 1563 1564 1564 1565 1565 1565 1565 1564 1564 1563 1562